Torna al catalogo

COSMOS 968

AttivoMilitareLEO
NORAD 10520·PAYLOAD·🇷🇺 Russia

Lanciato Dec 16, 1977 da Plesetsk Cosmodrome

Loading…

Prossimi Passaggi (prossime 24 ore)

TLE

AggiornatoSource: Space-Track

Epoca: Sep 14, 2026, 11:42 UTC

1 10520U 77119A   26257.48759010  .00000092  00000-0  39729-4 0  9994
2 10520  74.0316 334.0653 0017617 190.6381 169.4402 14.37111545551633

Traccia COSMOS 968 in tempo reale con AllMySat

Download on the App Store